Location: Newark
(27.9700°N, 83.2300°E)
Time: 19:13:11
(UTC+00:00)

Hubble Space Telescope - Visible Passes

Search period start: 19 February 2020 00:00
Search period end: 29 February 2020 00:00
Orbit: 536 x 540 km, 28.5° (Epoch: 19 February)

Date Brightness Start Highest point End Pass type
(mag) Time Alt. Az. Time Alt. Az. Time Alt. Az.
19 Feb 2.4 12:41:50 10° SSW 12:45:08 23° SSE 12:48:25 10° ESE visible
19 Feb 2.3 14:21:56 10° WSW 14:24:21 33° WSW 14:24:21 33° WSW visible
20 Feb 1.5 14:11:17 10° WSW 14:14:29 51° WSW 14:14:29 51° WSW visible
21 Feb 0.7 14:00:39 10° W 14:04:34 78° SW 14:04:34 78° SW visible
22 Feb 0.6 13:50:02 10° W 13:54:11 89° N 13:54:38 70° E visible
23 Feb 0.7 13:39:26 10° W 13:43:35 85° N 13:44:42 47° E visible
24 Feb 0.7 13:28:50 10° W 13:32:58 82° N 13:34:44 33° E visible
24 Feb 4.2 15:10:04 10° W 15:10:04 10° W 15:10:04 10° W visible
25 Feb 0.7 13:18:14 10° W 13:22:23 82° N 13:24:47 24° E visible
25 Feb 3.8 14:59:29 10° W 15:00:07 14° W 15:00:07 14° W visible
26 Feb 0.7 13:07:37 10° W 13:11:47 84° N 13:14:51 17° E visible
26 Feb 3.4 14:48:53 10° W 14:50:12 19° W 14:50:12 19° W visible
27 Feb 0.8 12:57:02 10° W 13:01:10 89° N 13:04:57 12° E visible
27 Feb 2.9 14:38:19 10° W 14:40:18 25° WSW 14:40:18 25° WSW visible
28 Feb 0.8 12:46:25 10° W 12:50:33 85° S 12:54:42 10° E visible
28 Feb 2.4 14:27:47 10° W 14:30:27 30° SW 14:30:27 30° SW visible
